Regional Weather Roundup
Issued by NWS

Home | Current Version | Previous Version | Text Only | Print | Product List | Glossary Off
Versions: 1 2 3 4 5 6 7 8 9 10 11 12 13 14 15 16 17 18 19 20 21 22 23 24 25 26 27 28 29 30 31 32 33 34 35 36 37 38 39 40 41 42 43 44 45 46 47 48 49 50

000
ASUS44 KMEG 011510
RWRTN
TENNESSEE HOURLY STATE WEATHER ROUNDUP
NATIONAL WEATHER SERVICE MEMPHIS TN
1000 AM CDT WED JUL 01 2015

TNZ002-004-019-021-049-052-054-088>092-011600-
WEST TENNESSEE

CITY           SKY/WX    TMP DP  RH WIND       PRES   REMARKS
MEMPHIS INTL   CLOUDY    79  72  79 S8G17     30.01R
NWS MEMPHIS      N/A     79 N/A N/A MISG        N/A
JACKSON        CLOUDY    79  73  82 SW7       29.97S
DYERSBURG        N/A    N/A N/A N/A MISG        N/A
PARIS          MOSUNNY   72  72 100 CALM      29.99R
LEXINGTON      SUNNY     77  73  88 SW5       29.96F
$$

TNZ008-025-027-028-033-062-065-066-011600-
NORTH MIDDLE TENNESSEE

CITY           SKY/WX    TMP DP  RH WIND       PRES   REMARKS
NASHVILLE      CLOUDY    76  73  91 SW5       30.00R
CLARKSVILLE    LGT RAIN  75  71  87 SW6       29.97R
SMYRNA         CLOUDY    78  72  82 SW6       30.00S
COOKEVILLE     SUNNY     77  73  88 SW5       30.00S
CROSSVILLE     PTSUNNY   74  67  78 W6        30.05F
$$

TNZ061-075-076-078-094-096-097-011600-
SOUTH MIDDLE TENNESSEE

CITY           SKY/WX    TMP DP  RH WIND       PRES   REMARKS
FAYETTEVILLE   CLOUDY    73  72  94 SW7       30.03S
TULLAHOMA      MOSUNNY   75  70  83 VRB5      30.04S
WINCHESTER     PTSUNNY   79  70  73 SW6       30.03S
MCMINNVILLE    SUNNY     75  73  94 SW7       30.02S
COLUMBIA       MOSUNNY   79  73  83 SW5       29.99S
SHELBYVILLE    SUNNY     79  72  78 SW7       30.02S
$$

TNZ017-018-042-046-047-011600-
NORTHEAST TENNESSEE

CITY           SKY/WX    TMP DP  RH WIND       PRES   REMARKS
TRI CITIES     PTSUNNY   74  67  78 W8        30.04R
ELIZABETHTON   PTSUNNY   73  66  78 VRB3      30.05R
$$

TNZ012-013-036-069-073-074-011600-
CENTRAL EAST TENNESSEE

CITY           SKY/WX    TMP DP  RH WIND       PRES   REMARKS
KNOXVILLE      CLOUDY    75  69  81 S10       30.01S
OAK RIDGE      PTSUNNY   76  70  82 VRB3      30.01F
GATLINBURG     PTSUNNY   75  66  73 SW12      30.01F
MORRISTOWN       N/A     73  70  88 W8        30.03F
$$

TNZ083-085-099-011600-
SOUTHEAST TENNESSEE

CITY           SKY/WX    TMP DP  RH WIND       PRES   REMARKS
CHATTANOOGA    CLOUDY    78  70  76 S7        30.03S
$$

SKY/WX REPORTED AS FAIR MEANS FEW OR NO CLOUDS BELOW
12 THOUSAND FEET.




USA.gov is the U.S. government's official web portal to all federal, state and local government web resources and services.